Location: Bagnolo San Vito
(45.0833°N, 10.8833°E)
Time: 23:17:45
(UTC+00:00)

ATLAS CENTAUR R/B - Pass Details

Date: 03 March 2021
Orbit: 475 x 670 km, 64.7° (Epoch: 30 March)

Event Time Altitude Azimuth Distance (km) Brightness Sun altitude
Rises 19:58:14 0° 262° (W) 2,520 5.5 -30.5°
Reaches altitude 10° 20:01:05 10° 286° (WNW) 1,648 4.6 -30.9°
Enters shadow 20:03:16 15° 323° (NW) 1,371 3.9 -31.3°
